Location: Martley
(52.2333°N, 2.3667°W)
Time: 18:42:46
(UTC+00:00)

ALOS - Pass Details

Date: 11 December 2019
Orbit: 683 x 685 km, 97.8° (Epoch: 27 January)

Event Time Altitude Azimuth Distance (km) Brightness Sun altitude
Rises 05:13:59 0° 18° (NNE) 3,067 5.8 -25.3°
Reaches altitude 10° 05:16:19 10° 24° (NNE) 2,146 5.0 -24.9°
Maximum altitude 05:20:52 48° 99° (E) 900 3.2 -24.2°
Drops below altitude 10° 05:25:22 10° 174° (S) 2,128 4.9 -23.5°
Sets 05:27:40 0° 180° (S) 3,039 5.7 -23.2°
